CAPE
0 0 0 0 0 3 276 344 413 468 338 529 529 492 555 680 619 397 418 531 639 698 692 674 707 782 686 729 706 700 627 616 583 488 457 512 517 667 816 788 604 433
10 8 1 0 0 1 2 3 244 382 304 112 132 358 449 582 560 418 344 446 571 615 645 644 673 730 757 718 675 623 683 650 651 616 528 516 635 699 678 716 650 568
10 10 7 5 8 7 2 2 111 214 212 224 267 309 380 469 652 606 635 605 532 479 608 687 636 590 671 716 712 644 640 581 616 673 616 587 531 532 569 650 709 709
6 9 14 12 14 12 6 1 0 1 9 70 124 221 254 348 556 591 623 668 714 610 598 547 591 612 581 533 532 546 559 524 524 486 499 532 488 472 476 537 589 588
3 4 5 7 9 8 8 5 4 1 0 23 6 69 230 234 432 562 510 498 508 570 573 533 450 439 450 514 406 311 373 476 532 528 577 561 479 401 394 402 454 561
0 0 2 2 1 4 10 6 7 5 2 0 0 4 56 179 291 519 545 527 539 560 641 600 521 469 502 488 382 196 329 274 397 449 494 478 505 367 373 466 519 556
0 0 2 0 0 0 9 7 3 4 6 6 4 0 0 0 18 179 410 506 600 472 481 517 543 488 406 354 316 313 316 346 367 481 501 537 525 450 341 380 520 622
0 0 0 0 0 0 6 7 7 9 6 8 6 1 0 0 4 86 226 346 432 506 552 523 515 497 453 384 304 274 333 430 422 467 637 606 431 402 431 435 437 560
0 0 0 0 0 0 5 6 8 10 10 6 2 2 0 0 0 44 135 14 295 392 438 470 466 446 444 434 344 326 355 365 443 587 700 640 538 530 533 543 579 643
0 0 0 0 0 0 5 7 8 8 9 1 3 4 3 0 0 2 57 170 237 269 363 412 391 376 444 476 432 450 453 477 400 441 517 496 482 550 549 556 590 565
0 0 0 0 1 2 6 9 10 9 9 6 3 1 3 3 2 0 23 94 156 254 329 344 330 301 372 416 375 354 331 314 388 422 385 389 262 395 555 626 633 566
0 0 0 2 4 5 8 9 10 10 8 7 4 3 4 6 4 2 1 4 86 187 61 261 266 266 281 326 316 261 272 123 236 258 206 235 320 216 391 646 641 663
0 0 2 5 7 7 8 10 10 8 9 8 4 1 1 1 2 3 2 1 1 20 62 133 183 244 284 259 240 236 177 2 59 293 332 331 328 409 599 672 625 640
3 4 4 7 9 11 10 11 9 8 9 9 6 3 1 0 1 1 2 2 2 2 4 29 78 186 250 258 282 335 295 262 278 315 366 375 348 354 509 738 776 652
5 8 8 7 10 10 9 9 8 7 8 7 6 4 4 2 2 1 1 1 0 1 1 7 7 78 168 235 284 247 235 259 278 294 315 309 385 357 404 427 522 520
6 8 5 6 5 5 5 6 5 4 3 2 2 1 0 1 1 2 2 2 1 0 1 6 8 2 23 138 186 244 258 238 295 333 310 247 183 252 479 682 678 537
6 7 4 4 5 4 4 2 1 0 0 0 0 0 0 0 0 1 2 2 2 1 1 3 5 2 1 30 145 241 251 228 228 298 262 268 309 288 438 590 670 448
5 5 2 3 4 5 5 3 1 0 0 0 0 0 0 0 0 0 0 1 2 1 1 3 5 1 0 0 0 0 64 150 184 194 182 93 97 226 250 469 554 584
4 5 4 4 3 3 2 3 2 2 0 0 0 0 0 0 0 0 0 0 0 0 2 3 4 0 0 0 0 0 0 0 219 166 162 25 184 244 129 382 526 516
0 0 0 1 2 2 0 0 0 3 4 0 0 0 0 0 0 0 0 0 0 0 0 2 3 0 0 0 0 0 0 0 0 34 96 108 4 6 178 235 410 357
0 0 0 0 0 0 0 0 0 0 3 1 0 0 0 0 0 0 0 0 0 0 0 1 1 0 0 0 0 0 0 0 0 34 95 126 70 1 47 220 237 199
0 0 0 0 0 0 0 0 0 0 0 0 0 0 0 0 0 0 0 0 0 0 0 0 0 0 0 0 0 0 0 0 0 34 40 60 16 43 45 57 204 241
0 0 0 0 0 0 0 0 0 0 0 0 0 0 0 0 0 0 0 0 0 0 0 0 0 0 0 0 0 0 0 0 1 3 3 15 2 3 16 26 75 190
0 0 0 0 0 0 0 0 0 0 0 0 0 0 0 0 0 0 0 0 0 0 0 0 0 0 0 0 0 0 0 1 2 3 5 18 23 16 5 19 110 189
0 0 0 0 0 0 0 0 0 0 0 0 0 0 0 0 0 0 0 0 0 0 0 0 0 0 0 0 0 0 0 1 2 2 4 4 43 40 23 11 109 125
0 0 0 0 0 0 0 0 0 0 0 0 0 0 0 0 0 0 0 0 0 0 0 0 0 0 0 0 0 0 0 1 2 3 8 9 24 38 26 19 52 78
Wind_Speed
nan nan nan nan nan nan 22 21 21 23 23 24 25 25 25 25 28 31 27 27 29 29 27 23 21 21 19 15 15 15 17 19 18 19 18 16 14 13 15 16 18 18
nan nan nan nan nan nan nan nan 20 21 21 23 25 26 25 25 25 25 28 27 27 26 24 23 22 22 22 20 16 15 14 16 15 18 17 15 15 14 13 15 18 19
nan nan nan nan nan nan nan nan 19 20 21 22 24 26 26 26 27 27 26 27 25 23 23 23 22 21 21 20 19 18 16 14 14 17 18 15 15 15 16 18 20 20
nan nan nan nan nan nan nan nan nan nan nan nan 23 24 27 27 27 25 26 24 23 22 21 21 20 20 19 20 19 18 18 16 16 18 18 18 17 17 19 20 20 21
nan nan nan nan nan nan nan nan nan nan nan nan nan nan 26 27 27 27 26 24 22 21 21 20 19 18 19 20 20 18 18 18 17 17 17 17 17 18 18 19 20 21
nan nan nan nan nan nan nan nan nan nan nan nan nan nan nan 25 26 27 27 24 22 20 20 20 19 19 19 17 17 17 19 21 18 18 16 17 18 20 22 21 20 21
nan nan nan nan nan nan nan nan nan nan nan nan nan nan nan nan nan 23 23 23 21 20 19 19 19 19 19 17 17 17 17 21 21 19 17 17 20 21 22 21 20 20
nan nan nan nan nan nan nan nan nan nan nan nan nan nan nan nan nan nan 22 20 20 18 17 17 18 18 18 18 18 17 17 18 21 20 20 19 20 20 20 21 21 20
nan nan nan nan nan nan nan nan nan nan nan nan nan nan nan nan nan nan 22 nan 18 16 15 16 17 18 18 17 16 17 19 19 19 22 22 20 19 17 19 21 22 22
nan nan nan nan nan nan nan nan nan nan nan nan nan nan nan nan nan nan nan 20 19 16 14 15 16 17 17 17 16 18 21 20 20 20 19 18 18 18 19 21 21 22
nan nan nan nan nan nan nan nan nan nan nan nan nan nan nan nan nan nan nan nan 18 16 15 17 20 22 24 23 21 19 20 22 23 20 17 15 16 18 19 20 19 18
nan nan nan nan nan nan nan nan nan nan nan nan nan nan nan nan nan nan nan nan nan 17 nan 23 19 19 21 22 22 22 19 18 22 22 19 16 14 16 19 20 19 19
nan nan nan nan nan nan nan nan nan nan nan nan nan nan nan nan nan nan nan nan nan nan nan 25 20 18 19 18 18 19 19 nan nan 21 21 19 16 16 18 17 18 21
nan nan nan nan nan nan nan nan nan nan nan nan nan nan nan nan nan nan nan nan nan nan nan nan nan 20 18 16 14 14 15 16 16 16 18 19 19 19 19 16 15 19
nan nan nan nan nan nan nan nan nan nan nan nan nan nan nan nan nan nan nan nan nan nan nan nan nan nan 20 16 12 11 13 13 15 15 14 17 18 19 20 20 19 18
nan nan nan nan nan nan nan nan nan nan nan nan nan nan nan nan nan nan nan nan nan nan nan nan nan nan nan 19 16 13 11 12 12 14 14 15 18 17 19 21 22 19
nan nan nan nan nan nan nan nan nan nan nan nan nan nan nan nan nan nan nan nan nan nan nan nan nan nan nan nan 17 15 13 11 11 11 13 14 18 19 21 22 23 23
nan nan nan nan nan nan nan nan nan nan nan nan nan nan nan nan nan nan nan nan nan nan nan nan nan nan nan nan nan nan nan 13 12 12 13 nan nan 18 19 20 21 22
nan nan nan nan nan nan nan nan nan nan nan nan nan nan nan nan nan nan nan nan nan nan nan nan nan nan nan nan nan nan nan nan 14 14 15 nan 16 18 19 19 21 22
nan nan nan nan nan nan nan nan nan nan nan nan nan nan nan nan nan nan nan nan nan nan nan nan nan nan nan nan nan nan nan nan nan nan nan 16 nan nan 21 22 21 24
nan nan nan nan nan nan nan nan nan nan nan nan nan nan nan nan nan nan nan nan nan nan nan nan nan nan nan nan nan nan nan nan nan nan nan 20 nan nan nan 22 22 24
nan nan nan nan nan nan nan nan nan nan nan nan nan nan nan nan nan nan nan nan nan nan nan nan nan nan nan nan nan nan nan nan nan nan nan nan nan nan nan nan 25 24
nan nan nan nan nan nan nan nan nan nan nan nan nan nan nan nan nan nan nan nan nan nan nan nan nan nan nan nan nan nan nan nan nan nan nan nan nan nan nan nan nan 27
nan nan nan nan nan nan nan nan nan nan nan nan nan nan nan nan nan nan nan nan nan nan nan nan nan nan nan nan nan nan nan nan nan nan nan nan nan nan nan nan 29 34
nan nan nan nan nan nan nan nan nan nan nan nan nan nan nan nan nan nan nan nan nan nan nan nan nan nan nan nan nan nan nan nan nan nan nan nan nan nan nan nan 33 32
nan nan nan nan nan nan nan nan nan nan nan nan nan nan nan nan nan nan nan nan nan nan nan nan nan nan nan nan nan nan nan nan nan nan nan nan nan nan nan nan nan nan
Wind_Direction
nan nan nan nan nan nan 297 298 305 311 316 317 319 322 322 319 311 312 317 306 304 300 301 302 302 299 293 282 279 270 262 262 264 270 270 265 259 253 251 250 250 254
nan nan nan nan nan nan nan nan 303 308 313 316 321 324 323 318 312 312 313 311 302 302 303 303 305 303 293 282 279 278 271 266 265 266 268 262 257 256 246 247 251 251
nan nan nan nan nan nan nan nan 300 304 309 312 319 322 324 321 318 317 315 311 309 304 300 296 297 298 290 278 275 275 274 277 274 268 267 267 266 261 253 247 244 250
nan nan nan nan nan nan nan nan nan nan nan nan 312 321 325 325 321 318 316 313 305 299 296 295 295 295 287 272 267 271 279 279 280 275 269 260 257 255 255 251 246 246
nan nan nan nan nan nan nan nan nan nan nan nan nan nan 323 325 325 322 318 314 306 298 293 289 287 289 284 277 272 273 274 273 276 281 275 267 258 253 252 253 249 245
nan nan nan nan nan nan nan nan nan nan nan nan nan nan nan 322 327 324 322 318 310 301 294 287 284 286 285 276 270 272 275 276 277 284 286 277 265 257 252 249 243 240
nan nan nan nan nan nan nan nan nan nan nan nan nan nan nan nan nan 316 323 324 318 309 296 283 278 280 284 280 270 263 262 265 265 268 275 274 269 261 257 251 245 243
nan nan nan nan nan nan nan nan nan nan nan nan nan nan nan nan nan nan 315 323 330 321 305 290 281 277 276 278 275 268 263 258 267 274 272 272 269 268 264 259 256 250
nan nan nan nan nan nan nan nan nan nan nan nan nan nan nan nan nan nan 311 nan 317 329 318 294 280 275 273 269 268 267 263 264 261 263 269 271 274 273 273 270 265 260
nan nan nan nan nan nan nan nan nan nan nan nan nan nan nan nan nan nan nan 307 312 311 312 306 284 269 268 272 269 272 276 271 270 273 269 270 272 275 274 275 272 262
nan nan nan nan nan nan nan nan nan nan nan nan nan nan nan nan nan nan nan nan 304 302 302 285 270 254 247 249 251 261 272 269 267 268 272 272 272 274 279 280 277 270
nan nan nan nan nan nan nan nan nan nan nan nan nan nan nan nan nan nan nan nan nan 294 nan 288 287 278 267 259 254 250 248 269 273 270 274 281 279 274 274 276 273 270
nan nan nan nan nan nan nan nan nan nan nan nan nan nan nan nan nan nan nan nan nan nan nan 285 281 280 277 267 258 251 250 nan nan 279 272 273 278 282 280 274 271 267
nan nan nan nan nan nan nan nan nan nan nan nan nan nan nan nan nan nan nan nan nan nan nan nan nan 272 267 264 272 271 262 263 262 280 286 279 273 272 279 284 283 276
nan nan nan nan nan nan nan nan nan nan nan nan nan nan nan nan nan nan nan nan nan nan nan nan nan nan 275 268 273 274 283 278 272 263 270 282 273 276 286 291 289 286
nan nan nan nan nan nan nan nan nan nan nan nan nan nan nan nan nan nan nan nan nan nan nan nan nan nan nan 237 249 268 280 293 291 284 273 278 287 281 276 277 281 280
nan nan nan nan nan nan nan nan nan nan nan nan nan nan nan nan nan nan nan nan nan nan nan nan nan nan nan nan 242 235 257 282 287 294 297 287 281 277 277 279 283 290
nan nan nan nan nan nan nan nan nan nan nan nan nan nan nan nan nan nan nan nan nan nan nan nan nan nan nan nan nan nan nan 258 279 292 297 nan nan 286 281 283 288 287
nan nan nan nan nan nan nan nan nan nan nan nan nan nan nan nan nan nan nan nan nan nan nan nan nan nan nan nan nan nan nan nan 285 286 287 nan 291 288 287 288 284 278
nan nan nan nan nan nan nan nan nan nan nan nan nan nan nan nan nan nan nan nan nan nan nan nan nan nan nan nan nan nan nan nan nan nan nan 285 nan nan 281 280 283 282
nan nan nan nan nan nan nan nan nan nan nan nan nan nan nan nan nan nan nan nan nan nan nan nan nan nan nan nan nan nan nan nan nan nan nan 277 nan nan nan 281 285 288
nan nan nan nan nan nan nan nan nan nan nan nan nan nan nan nan nan nan nan nan nan nan nan nan nan nan nan nan nan nan nan nan nan nan nan nan nan nan nan nan 262 270
nan nan nan nan nan nan nan nan nan nan nan nan nan nan nan nan nan nan nan nan nan nan nan nan nan nan nan nan nan nan nan nan nan nan nan nan nan nan nan nan nan 257
nan nan nan nan nan nan nan nan nan nan nan nan nan nan nan nan nan nan nan nan nan nan nan nan nan nan nan nan nan nan nan nan nan nan nan nan nan nan nan nan 257 242
nan nan nan nan nan nan nan nan nan nan nan nan nan nan nan nan nan nan nan nan nan nan nan nan nan nan nan nan nan nan nan nan nan nan nan nan nan nan nan nan 255 253
nan nan nan nan nan nan nan nan nan nan nan nan nan nan nan nan nan nan nan nan nan nan nan nan nan nan nan nan nan nan nan nan nan nan nan nan nan nan nan nan nan nan